KPSP Airport Information

Runway Information
Runway 13L Length 4952 ft width 75 ft
Elevation 449 ft Threshold 0 ft Heading 144
Runway 31R Length 4952 ft Width 75 ft
Elevation 407 ft Threshold 0 ft Heading 324
Runway 13R Length 10000 ft width 150 ft
Elevation 451 ft Threshold 3000 ft Heading 144
Runway 31L Length 10000 ft Width 150 ft
Elevation 405 ft Threshold 1500 ft Heading 324
Airport Frequencies
Type A/D Name APP/DEP Frequency 126.7 MHZ
Type ATIS Name ATIS Frequency 118.25 MHZ
Type CLD Name CLNC DEL Frequency 128.35 MHZ
Type CTAF Name CTAF Frequency 119.7 MHZ
Type GND Name GND Frequency 121.9 MHZ
Type RDO Name RIVERSIDE Frequency 115.5 MHZ
Type TWR Name TWR Frequency 119.7 MHZ
Type UNIC Name UNICOM Frequency 122.95 MHZ
Airport Navaids
Type VORTAC Name Palm Springs Frequency 115500 KHZ
Airport Weather Information & NOTAM
ADDS - METARS form results

(0326 UTC 19 August 2018)
 
METAR text: KPSP 190253Z 31019G24KT 10SM CLR 38/16 A2980 RMK AO2 SLP085 T03830156 53000
Conditions at: KPSP (PALM SPRINGS , CA, US) observed 0253 UTC 19 August 2018
Temperature: 38.3°C (101°F)
Dewpoint: 15.6°C (60°F) [RH = 26%]
Pressure (altimeter): 29.80 inches Hg (1009.2 mb)
[Sea-level pressure: 1008.5 mb]
Winds: from the NW (310 degrees) at 22 MPH (19 knots; 9.9 m/s)
gusting to 28 MPH (24 knots; 12.5 m/s)
Visibility: 10 or more miles (16+ km)
Ceiling: at least 12,000 feet AGL
Clouds: sky clear below 12,000 feet AGL
Weather: no significant weather observed at this time